SCP
1 1 1 1 0 0 0 0 0 0 0 0 0 0 0 0 0 1 1 1 1 1 1 2 3 3 3 3 2 2 1 1 1 1 1 0 0 0 1 1 1 1 1 1 1 1 1 1 1
1 1 0 0 0 0 0 0 0 0 0 0 0 0 0 0 0 1 1 1 1 1 2 2 3 3 3 2 2 1 1 1 1 1 0 0 0 0 0 0 1 1 1 1 1 1 1 1 1
1 1 0 0 0 0 0 0 0 0 0 0 0 0 0 0 0 1 1 1 1 1 2 2 3 3 2 2 1 1 1 0 0 0 0 0 0 0 0 0 0 0 1 1 1 1 1 1 1
1 1 0 0 0 0 0 0 0 0 0 0 0 0 0 0 0 1 1 1 1 1 2 2 2 2 2 1 1 1 0 0 0 0 0 0 0 0 0 0 0 0 0 0 0 0 1 1 1
1 0 0 0 0 0 0 0 0 0 0 0 0 0 0 1 1 1 1 1 1 1 1 2 2 1 1 1 1 0 0 0 0 0 0 0 0 0 0 0 0 0 0 0 0 0 0 0 0
1 0 0 0 0 0 0 0 0 0 0 0 0 0 1 1 1 1 1 1 1 1 1 1 1 1 1 1 0 0 0 0 0 0 0 0 0 0 0 0 0 0 0 0 0 0 0 0 0
1 0 0 0 0 0 0 0 0 0 0 1 1 0 1 1 0 0 1 1 1 1 1 1 1 1 1 1 0 0 0 0 0 0 0 0 0 0 0 0 0 0 0 0 0 0 0 0 0
1 0 0 0 0 0 0 0 0 0 0 1 1 0 0 0 0 0 1 1 1 1 1 1 1 1 1 1 0 0 0 0 0 0 0 0 0 0 0 0 0 0 0 0 0 0 0 0 0
0 0 0 0 0 0 0 0 0 0 0 1 1 0 0 1 1 1 1 1 1 1 1 1 1 0 0 0 0 0 0 0 0 0 0 0 0 0 0 0 0 0 0 0 0 0 0 0 0
0 0 0 0 0 0 0 0 0 0 0 0 0 0 1 1 1 1 1 1 1 1 1 1 0 0 0 0 0 0 0 0 0 0 0 0 0 0 0 0 0 0 0 0 0 0 0 0 0
0 0 0 0 0 0 0 1 1 0 0 0 0 0 1 1 1 1 1 1 0 1 1 1 1 0 0 0 0 0 0 0 0 0 0 0 0 0 0 0 0 0 0 0 0 0 0 0 0
0 0 0 0 0 0 1 1 1 0 0 0 0 1 1 1 0 0 0 0 0 1 1 1 1 1 0 0 0 0 0 0 0 0 0 0 0 0 0 0 0 0 0 0 0 0 0 0 0
1 0 0 0 0 0 1 1 1 0 0 1 1 1 1 1 0 0 0 0 0 1 1 1 1 1 0 0 0 0 0 0 0 0 0 0 0 0 0 0 0 0 0 0 0 0 0 0 0
1 0 0 0 0 0 0 0 0 0 1 1 1 1 1 1 0 0 0 0 0 0 1 1 1 1 0 0 0 0 0 0 0 0 0 0 0 0 0 0 0 0 0 0 0 0 0 0 0
1 0 0 0 0 0 0 0 0 0 1 1 1 1 1 0 0 0 0 0 0 0 0 1 1 1 0 0 0 0 0 0 0 0 0 0 0 0 0 0 0 0 0 0 0 0 0 0 0
0 0 0 0 0 0 0 0 0 1 1 1 1 1 1 0 0 0 0 0 0 1 1 1 0 0 0 0 0 0 0 0 0 0 0 0 0 0 0 0 0 0 0 0 0 0 0 0 0
0 0 0 0 0 0 0 0 0 0 1 1 1 1 1 1 0 0 0 0 1 1 1 0 0 0 0 0 0 0 0 0 0 0 0 0 0 0 0 0 0 0 0 1 1 1 1 1 1
0 0 0 0 0 0 0 0 0 1 1 1 1 1 1 1 0 0 0 0 0 0 0 0 0 0 1 1 0 0 0 0 0 0 0 0 0 0 0 0 0 0 1 1 1 1 1 1 1
0 0 0 0 0 0 0 0 0 1 1 1 1 1 1 0 0 0 0 0 0 0 0 0 0 0 1 1 1 0 0 0 0 0 0 0 0 0 0 0 0 1 1 1 1 1 1 1 0
0 0 0 0 0 0 0 0 0 0 1 1 1 1 0 0 0 0 0 0 0 0 0 0 0 0 1 1 1 0 0 0 0 0 0 0 0 0 0 0 1 1 1 1 1 1 1 0 0
0 0 0 0 0 0 0 0 0 0 0 1 1 1 0 0 0 0 0 0 0 0 0 0 0 0 0 1 1 0 0 0 0 0 0 0 0 0 0 0 0 1 1 1 1 1 1 1 0
0 0 0 0 0 0 0 0 0 0 0 0 1 1 1 1 0 0 0 0 0 0 0 0 0 0 0 0 0 0 0 0 0 0 0 0 0 0 0 0 0 1 1 1 1 1 1 1 1
0 0 0 0 0 0 0 0 0 0 0 0 0 0 1 1 1 0 0 0 0 0 1 1 0 0 0 0 0 0 0 0 0 0 0 0 0 0 0 0 0 0 1 1 1 1 1 1 2
0 0 0 0 0 0 0 0 0 0 0 0 0 0 1 1 1 0 0 0 0 0 1 1 1 1 1 1 1 0 0 0 0 0 0 0 0 0 0 0 0 0 1 1 1 1 1 2 2
0 0 0 0 0 0 0 0 0 0 0 0 0 0 0 1 1 0 0 1 0 0 0 0 1 1 1 1 1 1 0 0 0 0 0 0 0 0 0 0 0 0 1 1 1 1 1 2 2
0 0 0 0 0 0 0 0 0 0 0 0 0 0 0 0 1 0 1 1 1 0 0 0 0 0 1 1 1 1 1 1 0 0 0 0 0 0 0 0 0 0 0 0 1 1 1 1 2
0 0 0 0 0 0 0 0 0 0 0 0 0 0 0 1 1 1 0 0 0 0 0 0 0 0 0 0 0 1 1 0 0 0 1 1 0 0 0 0 0 0 0 0 0 1 1 1 1
0 0 0 0 0 0 0 0 0 0 0 0 0 0 0 1 1 1 0 0 0 0 0 0 0 0 0 0 0 0 0 0 0 0 0 0 1 1 1 0 0 0 0 0 0 0 0 1 1
0 0 0 0 0 0 0 0 0 0 0 0 0 0 0 1 1 1 0 0 0 0 0 0 0 0 0 0 0 0 0 0 0 0 0 0 0 0 1 0 0 0 0 0 0 0 0 0 0
0 0 0 0 0 0 0 0 0 0 0 0 0 0 0 1 1 1 1 0 0 0 0 0 0 0 0 0 0 0 0 0 0 0 0 0 0 0 0 0 0 0 0 0 0 0 0 0 0
Wind_Speed
3 1 2 3 4 2 5 5 4 4 4 5 4 4 6 7 6 7 5 6 9 9 10 11 11 11 12 12 12 13 13 13 12 11 11 11 11 11 10 10 10 10 9 9 9 8 8 7 7
1 1 3 3 3 3 6 5 6 6 5 5 5 5 7 8 7 7 6 8 10 10 9 10 11 12 12 12 12 13 12 12 11 11 11 11 10 10 10 9 9 9 9 9 8 8 7 7 7
1 3 3 2 1 3 6 6 6 6 5 3 4 5 6 7 6 7 8 10 10 10 10 11 11 11 11 11 12 12 12 11 11 10 10 10 9 9 9 9 9 9 9 8 8 8 7 7 6
2 3 2 1 6 6 5 5 5 6 5 4 5 7 7 7 6 9 11 11 11 10 10 12 10 11 11 11 11 11 11 10 10 10 9 9 8 8 8 8 8 8 8 8 8 8 7 7 7
2 3 2 4 6 5 5 4 3 5 5 6 6 10 9 7 9 11 11 10 10 10 10 11 11 11 11 11 11 10 10 9 9 9 8 8 8 8 8 8 8 7 7 7 7 7 7 6 6
2 2 3 5 6 5 4 3 3 6 7 7 8 10 9 7 9 10 10 9 9 9 9 11 12 10 10 10 10 9 9 8 8 8 8 8 8 8 7 7 7 7 7 6 6 6 6 5 5
2 1 3 5 6 5 4 3 4 5 7 6 6 9 9 9 8 9 9 8 8 8 8 8 9 10 10 9 9 9 8 8 8 8 7 7 7 7 7 7 7 6 6 6 6 6 5 5 5
2 1 4 5 6 6 4 4 4 5 7 6 3 7 9 11 10 8 8 8 8 7 7 7 7 6 7 8 9 8 7 7 7 7 7 5 4 5 4 4 7 7 7 7 6 5 5 4 3
3 3 4 4 4 5 5 5 5 4 7 5 4 7 11 13 11 10 8 7 7 6 6 6 6 6 5 6 7 5 6 5 3 5 5 1 3 4 3 9 7 7 7 6 6 5 4 2 2
2 2 4 3 3 5 5 5 5 5 7 7 9 10 12 12 11 10 8 8 7 7 6 5 5 5 5 4 4 3 3 3 2 4 4 3 4 4 4 5 4 4 3 2 4 3 3 5 0
1 2 4 3 4 5 5 4 3 4 5 7 10 13 13 12 9 8 7 7 6 6 5 4 4 4 4 3 3 2 2 2 3 4 4 3 3 2 3 2 2 2 2 3 2 2 2 3 3
3 4 3 3 4 4 4 4 4 3 4 6 9 13 13 11 9 8 7 6 5 6 5 4 4 4 4 3 3 2 2 2 3 4 5 3 3 3 4 3 4 3 3 4 3 3 3 3 3
4 4 4 4 4 4 5 5 5 5 5 8 11 12 12 10 9 7 7 6 5 5 5 5 3 3 4 4 3 3 3 3 4 3 3 4 3 4 4 3 3 4 4 3 3 4 4 4 4
4 5 5 4 5 4 5 5 5 6 7 10 11 11 10 9 7 7 7 6 5 5 5 5 4 4 4 4 4 4 3 3 3 3 4 5 4 4 4 4 4 4 4 4 4 4 3 3 3
5 7 6 4 4 4 5 6 6 6 8 10 10 10 9 8 7 6 6 5 5 5 5 5 4 4 4 5 4 3 3 3 3 3 4 5 5 4 4 4 4 4 4 4 4 4 3 3 3
6 6 5 4 3 3 4 6 6 5 8 9 9 9 8 6 6 5 5 4 5 4 5 6 4 4 5 5 4 3 3 3 3 3 4 5 5 6 5 4 4 4 4 4 4 4 3 3 3
6 6 6 6 3 3 4 6 6 6 7 8 8 8 8 7 6 5 4 4 5 5 5 6 5 5 5 5 4 4 3 3 3 3 3 4 5 5 5 4 4 5 4 4 4 4 4 4 3
5 6 6 5 3 4 5 6 7 6 7 7 8 8 8 7 6 6 5 5 5 6 6 6 6 6 6 4 4 3 3 3 3 3 4 5 4 5 5 3 5 5 4 4 4 4 4 3 3
4 5 5 4 3 4 6 7 6 6 6 7 7 8 8 7 6 6 6 6 6 6 6 6 6 6 4 3 3 2 3 2 3 3 4 4 5 5 5 4 4 4 4 5 5 4 4 4 4
6 6 5 5 4 3 6 6 5 5 6 6 7 8 8 8 8 7 6 6 6 6 6 6 5 5 4 3 2 2 2 2 3 2 3 4 4 5 4 4 3 4 3 4 5 5 4 3 4
5 5 6 6 6 4 5 6 7 6 5 5 6 7 7 8 8 8 7 7 7 7 6 5 5 5 4 3 2 2 2 2 2 2 2 3 4 4 4 5 4 4 4 4 4 4 4 4 3
4 3 5 6 6 5 5 5 8 8 8 8 8 8 8 8 8 8 8 8 7 7 6 6 6 5 4 3 2 2 1 2 3 2 2 2 3 4 4 4 4 4 4 4 4 4 3 4 3
3 4 5 5 4 4 6 5 6 8 9 9 9 9 9 9 9 9 9 8 8 7 6 5 6 5 4 3 3 2 1 2 2 1 2 2 3 3 3 3 3 4 3 4 4 4 4 3 4
7 7 6 5 5 6 5 5 5 7 9 9 10 10 10 10 9 9 9 8 8 7 6 6 5 5 4 3 3 2 2 1 1 2 2 2 2 2 3 3 3 3 3 4 4 4 4 4 4
7 7 5 6 5 3 4 5 2 3 5 7 10 11 11 10 10 10 10 10 9 8 7 7 6 5 4 3 2 2 2 1 1 1 2 2 2 2 3 3 3 3 3 3 3 3 4 4 4
8 7 4 3 3 3 5 5 2 3 4 6 8 10 11 11 10 10 10 10 9 9 8 7 6 5 4 3 2 2 2 1 1 1 2 2 2 3 3 3 3 3 3 3 3 3 3 3 3
7 6 3 3 2 3 4 3 3 4 6 8 10 10 11 11 11 11 10 10 9 9 8 7 7 5 5 4 3 2 2 1 1 1 2 2 2 2 3 2 2 3 3 4 3 2 3 3 4
3 4 5 5 3 3 3 4 4 8 9 10 11 12 12 12 11 11 10 9 9 9 8 7 6 6 5 4 3 2 2 1 1 1 2 2 2 2 2 3 3 3 3 3 3 3 3 3 3
8 7 6 5 4 3 2 2 1 5 8 11 12 12 12 12 11 10 9 9 9 9 8 8 7 6 5 4 4 3 2 2 1 1 2 2 2 2 2 3 3 3 3 3 3 3 3 4 4
7 7 8 6 4 4 3 2 4 3 6 9 11 11 11 11 11 10 9 9 9 9 9 8 7 6 5 4 4 3 3 2 1 1 1 1 1 2 2 3 3 3 3 4 4 4 4 4 4
Wind_Direction
207 240 263 252 229 148 87 79 82 87 77 61 57 62 68 51 39 67 90 113 111 112 111 111 102 101 98 98 98 96 94 92 90 87 83 80 77 74 71 69 66 62 59 55 49 46 45 43 42
252 260 247 251 241 129 99 94 83 72 90 99 82 79 77 70 64 88 110 113 117 112 110 104 106 102 100 98 97 96 94 91 87 84 81 78 74 71 66 62 60 56 53 50 45 40 39 37 38
194 265 272 253 92 81 96 88 85 90 100 109 94 69 62 72 84 99 113 123 117 111 107 105 109 106 103 98 96 95 92 90 87 83 80 77 74 70 64 58 54 51 48 46 42 37 35 33 33
238 229 236 166 94 69 75 89 103 117 103 94 107 90 77 60 79 106 121 122 114 111 108 105 108 105 102 100 97 93 91 89 86 81 79 76 72 67 61 55 50 47 44 43 39 33 30 29 28
249 255 182 125 97 88 83 80 108 104 99 95 103 98 89 74 96 115 124 122 116 111 106 107 104 104 102 100 96 92 89 86 81 78 73 68 64 60 54 50 48 45 41 36 32 28 26 26 24
235 238 178 128 109 101 91 81 104 98 101 103 106 105 93 106 115 121 122 121 116 113 111 110 109 102 98 94 90 87 84 79 73 69 65 60 57 53 48 45 43 40 36 33 28 24 21 22 22
276 206 132 123 121 113 93 85 88 103 107 101 111 109 116 125 122 126 125 121 116 114 113 112 117 118 110 96 86 81 75 71 68 63 61 58 54 51 45 44 38 34 31 27 22 20 18 19 21
305 197 141 130 126 107 99 100 90 96 101 104 110 118 132 139 137 130 123 121 119 117 114 111 109 109 108 107 91 78 72 69 66 62 58 59 79 80 58 52 44 29 28 24 20 19 17 16 20
256 200 139 119 113 106 116 119 103 103 114 107 92 96 118 134 141 138 132 129 124 123 119 117 113 103 99 92 95 99 97 83 105 100 84 24 41 47 59 45 33 28 30 29 24 20 13 323 154
228 158 104 82 96 114 116 111 116 132 126 120 113 109 126 141 147 146 142 137 134 131 123 119 116 111 102 89 92 76 75 76 51 59 61 35 34 33 18 86 50 35 24 56 39 348 259 263 41
128 100 105 109 107 118 117 108 111 132 122 130 136 138 146 148 152 148 141 135 128 127 123 121 118 112 104 103 83 67 63 70 61 49 55 35 29 36 22 15 65 39 341 13 34 278 357 355 16
123 104 108 117 124 130 115 117 112 102 89 119 134 141 148 154 154 151 144 135 133 127 123 118 118 122 118 101 85 64 61 62 59 49 39 32 25 13 25 14 15 3 15 8 356 350 7 350 351
130 116 111 114 118 125 122 117 110 100 99 125 132 140 148 151 150 144 139 139 138 132 129 118 118 108 109 103 92 85 68 48 66 48 29 35 24 20 18 20 19 9 5 359 356 347 8 351 359
111 118 121 125 128 130 125 117 118 101 122 131 135 142 147 146 147 144 145 144 139 136 134 126 121 110 107 102 96 84 83 76 55 49 32 33 33 21 14 20 20 12 5 1 346 5 352 357 3
140 134 123 114 122 132 144 121 113 115 138 137 140 140 138 144 149 148 143 139 132 131 126 120 118 117 108 93 86 86 84 73 59 49 37 43 35 22 24 15 21 14 5 359 357 3 345 355 347
168 165 142 114 133 155 191 128 115 135 149 145 146 143 147 150 154 146 138 134 125 127 120 120 127 126 113 102 101 98 87 72 63 56 41 39 38 30 24 18 20 15 8 3 4 355 347 354 343
177 163 146 134 138 164 173 134 132 152 160 154 154 153 157 156 155 148 142 137 130 129 127 127 125 121 110 106 109 96 89 76 62 55 45 33 32 23 27 19 11 15 9 7 1 8 354 3 353
160 154 154 145 131 168 158 143 142 158 169 166 161 163 163 160 154 147 144 140 136 132 131 126 123 122 119 122 116 105 91 80 65 53 44 32 20 20 19 16 15 14 12 9 5 12 6 0 344
159 164 154 127 131 172 161 153 154 157 170 177 172 167 162 154 143 141 143 145 144 137 133 126 129 127 129 122 121 113 101 86 75 53 46 34 20 14 19 3 14 7 17 9 4 6 10 9 355
175 170 157 131 135 176 158 157 155 172 182 188 182 171 166 161 156 149 149 150 148 141 139 137 137 135 129 108 100 93 81 72 63 50 45 28 23 18 11 13 13 19 12 14 11 9 356 9 358
185 189 168 149 149 166 166 176 177 175 186 190 192 181 174 176 170 159 157 153 151 150 147 146 144 138 127 125 117 120 117 130 105 72 49 29 26 31 22 20 13 9 13 23 12 8 7 360 11
174 157 166 166 180 166 208 192 184 185 187 190 189 186 182 178 176 166 165 161 159 149 147 152 149 142 142 152 149 130 98 73 60 40 48 49 42 35 28 18 14 14 19 25 16 19 7 355 5
132 145 167 180 195 190 203 229 166 183 196 193 190 188 183 178 177 172 169 165 159 151 150 151 149 144 146 153 141 170 112 81 72 63 61 40 53 38 31 15 13 17 21 23 15 10 7 7 0
147 153 157 188 216 217 200 230 181 183 201 188 184 186 181 177 175 171 162 160 156 152 152 154 155 146 151 163 169 162 119 104 73 55 47 42 57 43 39 19 11 18 20 19 10 7 15 8 4
197 193 190 195 206 201 169 232 207 155 190 191 184 183 179 174 172 169 164 165 161 160 160 160 159 157 160 173 173 148 144 143 69 34 40 19 34 32 24 14 11 17 15 14 4 6 7 9 0
199 224 241 229 206 161 183 224 135 127 175 185 182 177 173 172 172 170 170 168 165 164 165 165 162 159 161 171 160 148 137 127 68 36 22 18 22 27 17 8 15 16 6 2 9 352 2 356 356
191 211 270 277 225 218 184 182 163 151 165 170 170 169 173 173 172 170 169 168 165 165 168 168 164 162 164 165 151 141 126 101 72 35 30 26 26 27 20 6 9 17 6 355 355 3 2 354 354
247 192 206 236 234 222 194 206 185 169 172 173 174 175 173 172 170 168 167 167 166 164 166 164 164 162 162 157 146 137 143 120 67 34 34 28 28 25 12 2 2 6 5 357 350 348 359 351 3
182 196 219 233 256 262 217 148 104 177 177 179 179 176 171 170 169 167 166 165 161 160 162 163 165 164 162 160 151 146 139 126 110 67 45 33 27 18 5 4 358 357 353 353 353 350 353 344 346
228 221 219 228 212 240 263 100 95 175 174 178 175 171 169 168 168 164 162 160 160 162 164 165 163 160 158 160 159 149 148 147 151 86 48 34 31 18 11 6 357 358 352 347 344 342 339 337 340